GFSFLT2_sfc_30mbdewp_087.txt.gz
Dewpoint
66 68 68 68 68 69 69 69 69 69 68 67 66 66 65 65 64 63 64 66 66 66 66 66 65 64 63 62 61 62 61 60
66 67 68 68 68 68 68 68 68 66 66 65 65 65 65 65 65 64 64 66 66 66 66 65 64 63 62 61 60 60 59 58
66 67 68 68 68 67 67 67 66 65 65 64 63 64 64 64 64 63 63 65 66 65 65 64 63 62 61 59 58 57 57 56
66 67 67 68 67 66 66 66 65 64 64 63 64 64 63 63 63 63 63 65 65 64 64 63 61 60 59 57 57 57 56 56
65 66 67 67 66 66 65 65 64 64 63 62 63 62 62 62 63 63 64 64 64 64 62 61 60 59 58 57 57 57 56 55
64 65 65 65 65 65 64 63 63 63 63 62 62 62 61 61 62 62 62 63 63 62 61 60 59 58 57 57 56 55 55 54
64 64 64 64 64 64 64 64 63 63 62 62 62 61 61 61 61 62 62 61 61 61 59 59 58 57 57 56 56 56 55 54
64 63 64 63 62 63 63 63 64 63 62 62 61 61 61 62 62 61 62 60 60 59 58 58 57 56 56 56 55 55 55 55
62 63 63 63 62 62 62 62 63 62 61 62 61 61 61 61 61 61 61 59 57 57 57 56 56 55 55 55 55 55 55 55
61 62 61 62 63 62 61 61 61 61 61 61 62 62 62 61 61 61 60 58 56 55 55 55 55 54 54 54 54 54 55 55
60 61 60 61 62 61 61 60 60 60 61 60 61 61 61 61 61 61 59 57 55 54 54 54 54 53 53 53 54 54 55 54
59 60 60 61 61 61 61 60 60 60 60 60 60 61 62 61 60 59 59 57 54 53 53 54 54 53 52 53 54 54 54 54
58 59 59 60 60 60 59 58 59 59 60 60 60 61 62 61 60 58 58 57 53 53 54 54 53 53 52 53 53 54 54 54
57 58 58 58 59 60 60 60 60 60 60 60 60 60 62 60 58 58 57 57 54 52 53 53 53 53 51 50 49 51 53 54
56 56 56 57 57 58 59 59 59 59 59 60 60 60 61 59 58 57 57 56 54 52 53 52 52 53 53 50 50 48 50 52
56 56 56 56 57 56 56 56 56 57 59 59 58 59 60 57 58 57 55 54 54 53 52 52 53 52 53 51 52 52 48 49
55 55 55 55 57 57 56 56 57 58 59 57 56 56 56 56 56 53 52 53 54 53 51 52 54 52 51 51 51 51 52 50
55 55 55 55 56 57 56 56 57 57 57 56 55 55 56 53 53 52 52 52 53 53 53 52 53 53 52 52 50 48 48 49
55 54 54 55 56 56 56 57 57 57 56 56 55 54 55 56 54 54 54 55 54 54 54 52 52 52 52 52 51 50 51 49
54 54 53 54 55 55 56 56 57 57 56 57 57 56 55 55 55 54 56 55 55 55 54 53 53 53 52 52 52 51 51 50

GFSFLT2_sfc_30mbdewp_090.txt.gz
Dewpoint
68 68 67 67 68 69 69 68 68 70 70 69 68 66 66 66 66 66 66 66 67 67 67 67 66 65 64 63 62 61 58 60
67 68 67 67 67 68 69 68 68 68 68 68 66 66 66 66 65 65 66 67 67 67 66 66 65 64 63 62 62 61 58 59
67 68 68 67 67 68 68 68 68 67 67 66 66 65 65 64 64 64 64 65 67 66 66 65 64 63 62 61 61 58 58 57
67 67 67 68 66 68 67 67 66 67 66 66 65 64 64 63 63 62 64 65 66 66 65 64 63 62 62 61 59 57 56 56
66 67 67 67 68 67 67 67 66 65 65 65 64 65 64 62 63 64 65 65 64 65 64 63 61 61 60 59 57 58 56 55
66 66 67 67 68 67 67 67 66 66 65 65 65 64 63 62 62 62 63 64 64 64 64 62 60 59 59 59 57 55 53 52
65 67 67 67 67 66 66 66 66 65 65 63 63 63 62 62 61 63 62 64 63 63 62 61 60 59 58 57 56 54 53 50
63 65 66 66 66 66 65 65 65 65 65 64 63 62 61 60 61 62 63 63 63 62 62 60 59 57 57 56 55 54 53 51
61 65 65 65 65 65 65 65 65 64 64 63 63 62 62 61 61 62 63 62 62 62 61 59 57 56 56 55 54 53 51 51
58 64 65 65 64 64 64 64 64 64 63 63 62 62 62 61 62 61 62 61 61 61 60 58 56 55 54 54 52 50 51 52
57 63 64 64 64 63 63 63 63 63 62 62 62 62 62 62 61 62 61 60 59 60 60 57 55 54 53 52 51 51 51 50
56 61 63 63 64 63 62 62 62 62 62 61 61 62 62 62 61 61 60 59 59 59 57 56 54 53 51 51 52 52 52 49
55 59 62 62 62 61 60 60 60 60 61 61 61 62 62 62 61 60 59 58 58 59 56 55 53 53 52 52 54 53 53 50
54 58 60 62 61 60 59 59 60 60 60 61 60 61 61 62 60 59 59 58 58 58 56 55 53 54 52 52 51 52 53 52
54 57 60 61 59 58 59 60 60 60 60 60 60 60 61 61 60 59 59 58 57 57 56 54 53 54 52 49 48 46 50 52
54 56 59 59 58 57 57 56 57 59 59 60 60 60 60 60 59 59 59 58 57 57 57 55 54 53 53 50 48 44 47 48
56 57 57 57 57 56 56 55 55 56 58 59 59 60 60 59 59 59 58 58 58 56 56 55 54 53 52 52 52 51 49 44
56 56 56 56 57 55 55 54 55 56 58 58 57 57 59 59 59 59 58 58 57 56 56 56 55 54 53 52 51 50 49 47
56 56 55 56 56 55 55 55 56 56 57 56 55 55 55 56 57 57 57 57 57 56 55 55 55 54 54 53 52 50 47 47
55 55 55 55 55 55 55 56 56 56 57 57 55 55 55 55 55 55 56 56 56 55 55 54 55 55 55 53 53 52 50 50

GFSFLT2_sfc_30mbdewp_093.txt.gz
Dewpoint
66 66 67 68 69 70 68 68 70 70 70 70 70 69 68 68 68 66 66 68 68 69 68 67 67 66 65 64 63 62 60 61
66 67 66 67 67 69 69 68 69 70 69 68 67 66 66 66 66 66 66 67 67 68 67 67 66 65 64 63 62 61 60 60
67 66 66 66 65 67 68 68 68 68 68 68 66 65 65 65 65 65 65 64 63 65 66 66 65 64 63 62 61 59 60 60
66 67 66 65 63 66 66 66 66 67 66 66 66 64 64 62 64 64 63 64 65 66 65 64 64 63 63 61 59 60 59 61
66 66 66 66 63 64 64 65 64 65 65 63 62 63 64 64 64 63 63 64 65 65 64 64 62 63 62 60 59 59 57 59
66 67 66 67 64 64 62 62 65 65 65 65 64 64 65 64 63 62 62 64 64 64 64 62 61 61 62 59 58 58 55 58
62 67 65 66 67 66 65 65 63 64 65 65 64 64 64 63 61 61 64 64 63 63 63 63 62 60 60 58 58 56 55 56
61 65 66 65 66 67 66 66 66 65 64 65 65 64 63 62 61 61 62 63 63 63 62 62 62 59 59 58 56 54 51 49
57 64 66 66 66 67 66 65 65 65 65 65 64 64 63 61 61 62 62 63 63 62 62 62 61 59 57 56 53 51 50 49
48 60 66 66 65 66 65 65 65 65 65 65 65 64 63 62 62 62 63 63 63 62 61 60 59 58 55 54 51 51 50 49
46 57 65 65 65 65 65 65 65 65 64 64 64 64 63 62 62 62 63 62 62 61 61 60 58 55 54 52 50 47 49 48
44 55 65 65 65 64 64 64 64 64 64 64 63 63 62 62 62 62 62 61 61 61 60 60 58 54 51 51 49 48 48 48
45 52 63 64 63 62 62 63 62 63 62 63 63 63 62 61 61 62 62 60 60 60 60 58 57 54 52 52 53 55 50 47
46 51 58 63 62 62 62 61 61 61 62 62 62 62 62 61 61 61 60 59 59 59 59 57 57 55 51 51 51 53 53 49
45 50 56 62 63 62 60 61 60 60 60 60 61 61 62 62 61 61 60 59 59 58 59 57 55 54 54 49 49 48 51 51
46 50 56 61 61 58 59 58 58 59 59 60 61 61 61 61 61 60 59 59 58 58 59 58 55 53 53 52 49 45 48 49
48 50 55 59 60 57 58 58 57 57 58 59 60 60 61 61 60 60 59 59 59 59 58 57 55 54 53 52 50 48 50 47
51 52 54 57 58 57 57 56 55 53 57 59 60 60 60 60 60 59 59 59 59 59 59 57 55 55 54 53 51 48 47 46
54 54 54 56 57 57 57 56 55 54 56 58 58 58 58 59 59 59 59 59 58 59 58 57 57 56 55 53 52 51 49 46
54 53 53 55 57 57 56 55 55 55 58 58 57 56 57 59 59 59 59 59 59 59 58 58 57 56 55 55 54 53 52 48

GFSFLT2_sfc_30mbdewp_096.txt.gz
Dewpoint
68 67 68 69 70 69 68 68 68 70 70 70 70 70 68 68 68 67 67 67 67 69 68 68 67 67 66 65 64 62 63 63
68 67 68 68 69 69 68 68 68 69 70 70 70 69 67 68 67 66 65 66 66 67 67 65 66 66 65 64 62 62 62 62
69 68 67 68 68 69 68 68 68 69 69 69 69 69 68 67 67 65 64 64 63 63 64 66 65 65 64 63 62 61 61 62
68 68 67 67 66 68 68 68 68 69 68 69 69 68 66 65 65 65 64 65 64 64 63 65 65 64 63 62 62 61 61 61
68 68 68 67 64 68 67 67 67 68 68 67 68 66 65 65 65 65 65 64 65 65 65 65 64 63 63 62 60 60 61 61
66 68 68 68 66 66 66 65 66 66 67 66 66 65 65 65 64 64 64 64 64 64 64 63 62 63 61 61 60 59 60 60
66 67 67 68 67 65 65 64 65 66 66 67 66 65 65 65 64 63 62 63 63 63 63 61 62 62 62 59 59 59 59 59
68 67 67 67 67 67 66 66 66 66 66 66 66 65 66 64 64 62 62 63 64 63 62 61 62 62 62 59 59 59 59 59
67 67 67 67 67 67 67 67 66 66 66 66 66 65 65 64 63 63 63 63 63 63 62 62 61 61 61 58 59 58 56 56
62 67 67 66 66 67 65 66 66 66 65 66 66 66 64 64 63 63 63 63 63 62 61 61 61 60 59 59 58 52 52 54
43 66 67 66 66 65 65 65 65 65 65 65 66 65 64 63 63 63 63 63 62 62 61 61 60 59 58 59 55 52 51 53
43 66 67 66 66 65 65 64 63 65 65 64 64 65 64 64 63 63 63 62 62 61 60 61 59 59 59 57 51 52 51 53
42 60 67 66 65 64 64 63 63 63 65 64 64 64 63 63 62 62 62 61 61 61 60 59 59 59 58 54 54 51 49 51
42 56 66 65 64 64 63 63 63 63 63 64 64 63 63 62 62 62 62 61 60 60 59 58 58 59 55 51 49 51 52 50
42 49 65 65 64 63 62 62 63 63 62 62 62 63 63 62 62 61 61 60 60 60 59 57 57 58 58 50 49 47 49 52
40 46 52 65 63 62 62 61 60 60 60 61 62 61 62 62 62 61 61 60 60 59 60 58 57 55 57 52 49 51 48 48
44 46 50 63 62 62 61 60 60 59 60 60 60 60 61 61 61 61 61 60 60 59 59 58 58 56 55 52 50 52 50 48
48 49 53 62 62 62 61 60 59 58 58 60 60 60 60 61 61 61 60 60 59 59 60 59 58 57 55 53 49 51 50 49
52 51 53 60 61 61 61 60 59 57 59 59 60 59 59 60 60 60 59 59 59 60 59 58 58 57 56 54 52 50 51 51
53 53 52 58 59 60 59 58 58 57 57 59 59 58 58 60 60 60 59 59 59 59 59 58 58 58 56 54 54 53 52 51

GFSFLT2_sfc_30mbdewp_099.txt.gz
Dewpoint
68 68 69 70 70 70 70 71 70 68 68 71 71 70 69 68 68 68 68 68 67 68 68 68 67 66 65 65 63 64 64 65
67 67 68 69 69 69 69 70 68 67 68 68 70 70 68 68 68 67 66 67 68 65 65 64 65 64 65 64 62 64 64 64
67 67 67 68 68 68 68 68 67 67 68 67 69 69 68 68 68 66 66 66 65 65 64 63 64 64 64 64 62 63 62 62
67 67 67 67 68 68 67 68 67 67 68 68 69 68 68 67 67 66 65 65 64 64 64 63 62 64 63 63 62 62 62 62
67 67 67 67 67 68 68 68 68 67 67 68 68 68 67 66 65 65 65 64 64 63 63 64 64 63 62 62 62 62 62 62
67 67 67 67 67 67 67 67 67 67 68 68 68 66 65 65 64 64 64 64 63 62 63 64 64 64 63 62 61 62 61 61
67 67 67 67 67 67 66 66 66 67 67 67 67 65 65 64 64 64 64 64 62 62 62 62 62 62 61 61 60 60 61 61
67 67 67 66 67 66 65 66 65 66 66 66 66 65 65 64 63 63 63 63 62 62 62 61 62 62 62 60 61 60 60 61
65 67 67 67 66 66 66 66 65 66 66 66 66 66 65 64 63 62 62 63 63 62 62 61 61 62 61 61 61 61 60 60
64 66 66 67 66 67 66 66 66 66 66 66 65 65 65 64 63 63 63 63 63 62 61 60 60 60 60 61 60 60 59 59
58 66 66 67 66 67 66 66 65 65 65 66 65 65 64 64 63 63 63 63 62 62 61 60 59 60 60 60 60 58 57 57
52 66 66 66 66 66 65 65 66 65 64 65 65 65 64 63 63 63 63 62 62 61 61 61 60 60 59 58 59 58 55 56
52 66 66 66 65 64 64 63 64 65 64 64 64 65 64 63 63 63 62 62 60 61 60 60 59 60 57 58 58 56 53 55
51 65 66 65 65 64 64 64 64 63 65 64 63 64 64 63 63 62 62 61 61 60 60 59 59 59 55 55 53 53 52 53
58 65 66 65 65 64 63 63 63 63 63 64 64 63 63 62 63 62 62 61 60 60 60 59 57 59 58 53 50 48 49 52
58 66 65 64 64 63 62 61 60 61 62 62 63 63 63 62 62 62 62 61 60 60 60 59 58 56 58 57 52 49 47 48
54 65 64 64 63 63 62 61 60 61 62 61 62 62 63 62 62 62 61 61 60 60 60 59 58 57 56 55 51 50 49 47
44 62 64 63 62 62 61 60 61 59 60 60 60 61 61 61 61 61 61 61 60 60 60 59 58 57 58 56 51 48 48 48
46 51 63 62 62 62 61 61 60 59 59 59 59 59 59 60 61 61 61 60 60 60 60 59 58 57 57 56 53 51 50 48
48 58 62 62 62 61 61 61 60 59 59 59 59 59 58 58 60 60 60 60 60 60 59 59 59 58 57 57 55 53 51 50